Hourly Data Report for November 14, 2019

All times are specified in Local Standard Time (LST). Add 1 hour to adjust for Daylight Saving Time where and when it is observed.

HOPE A
BRITISH COLUMBIA
Current Station Operator: NAVCAN

49°22'06.000" N
121°29'53.000" W
39.00 m
1113542
71187
YHE

Download Data

Hourly Data (November 2019)
Hourly Data Report for November 14, 2019
TIME Temp Definition
°C
Dew Point Definition
°C
Rel Hum Definition
%
Wind Dir Definition
10's deg

Wind Spd Definition
km/h
Visibility Definition
km
Stn Press Definition
kPa
Hmdx Definition


Wind Chill Definition


Weather Definition


00:00 6.4 5.0 91 11 24 16.1 101.58     LegendNANA
01:00 6.1 4.6 90 11 18 16.1 101.59     LegendNANA
02:00 5.9 4.2 89 10 22 16.1 101.58     LegendNANA
03:00 5.6 3.9 89 10 22 16.1 101.54     LegendNANA
04:00 5.3 3.6 89 10 18 16.1 101.52     LegendNANA
05:00 5.7 3.6 86 10 22 16.1 101.47     LegendNANA
06:00 5.8 3.8 87 10 15 16.1 101.44     LegendNANA
07:00 5.2 3.5 89 11 21 16.1 101.45     LegendNANA
08:00 5.5 3.5 87 10 21 16.1 101.48     LegendNANA
09:00 6.7 4.0 83 11 22 16.1 101.45     LegendNANA
10:00 7.5 3.9 78 10 24 16.1 101.40     LegendNANA
11:00 8.3 4.5 77 11 18 16.1 101.37     LegendNANA
12:00 8.7 4.6 75 11 18 16.1 101.29     LegendNANA
13:00 9.1 4.5 73 11 24 16.1 101.20     LegendNANA
14:00 9.6 5.3 75 11 18 16.1 101.13     LegendNANA
15:00 9.5 5.2 74 12 21 16.1 101.09     LegendNANA
16:00 9.1 5.5 78 11 18 16.1 101.09     LegendNANA
17:00 8.1 5.5 84 8 8 16.1 101.10     LegendNANA
18:00 7.9 5.7 86 8 11 16.1 101.14     LegendNANA
19:00 7.5 5.7 88 8 11 16.1 101.11     LegendNANA
20:00 7.6 5.6 87 8 9 16.1 101.11     LegendNANA
21:00 7.8 5.6 86 10 18 16.1 101.07     Rain
22:00 7.8 5.8 87 11 18 16.1 100.96     Rain
23:00 7.7 5.7 87 12 17 16.1 100.88     Rain

Notes on Data Quality.

Legend

  • E = Estimated
  • M = Missing
  • NA = Not Available
Date modified: